Location: Calvatone
(45.1167°N, 10.4333°E)
Time: 10:27:31
(UTC+00:00)

METEOR M2 - Pass Details

Date: 09 December 2023
Orbit: 818 x 826 km, 98.4° (Epoch: 24 February)

Event Time Altitude Azimuth Distance (km) Brightness Sun altitude
Rises 16:42:12 0° 181° (S) 3,350 ? -11.2°
Reaches altitude 10° 16:44:37 10° 186° (S) 2,422 ? -11.6°
Maximum altitude 16:49:47 49° 261° (W) 1,064 ? -12.5°
Drops below altitude 10° 16:55:01 10° 336° (NNW) 2,437 ? -13.3°
Sets 16:57:28 0° 342° (NNW) 3,374 ? -13.8°
